contact:dominique.lefevre@mio.osupytheas.fr, maurice.libes@osupytheas.fr, didier.mallarino@osupytheas.fr
Project:EMSO http://www.emso-fr.org/EMSO-France
Depth: 2436.0 m
Title:EMSO Ligure Ouest : Data MII capteur CSTAR
DateTime,Latitude,Longitude,Instrument_Serial,Reference_Counts,Signal_Counts,Corrected_Signal_raw_counts,Calculated_Beam_c_inverse_meters,Internal_thermistor_counts
DateTime,Latitude,Longitude,Instrument_Serial,Reference_Counts,Signal_Counts,Corrected_Signal_raw_counts,Calculated_Beam_c_inverse_meters,Internal_thermistor_counts
2023-05-27T00:02:13,42.805,6.029,CST-1368DR,4286,4694,11625,01.181,552
2023-05-27T00:05:14,42.805,6.029,CST-1368DR,4286,4698,11635,01.177,552
2023-05-27T00:08:16,42.805,6.029,CST-1368DR,4286,4697,11633,01.178,552
2023-05-27T00:11:18,42.805,6.029,CST-1368DR,4286,4696,11631,01.178,552
2023-05-27T00:14:19,42.805,6.029,CST-1368DR,4286,4697,11632,01.178,552
2023-05-27T00:17:21,42.805,6.029,CST-1368DR,4286,4696,11630,01.179,552
2023-05-27T00:20:22,42.805,6.029,CST-1368DR,4286,4697,11632,01.178,552
2023-05-27T00:23:24,42.805,6.029,CST-1368DR,4286,4696,11631,01.178,552
2023-05-27T00:26:26,42.805,6.029,CST-1368DR,4286,4697,11633,01.178,552
2023-05-27T00:29:27,42.805,6.029,CST-1368DR,4286,4698,11636,01.177,552
2023-05-27T00:32:29,42.805,6.029,CST-1368DR,4286,4696,11631,01.178,552
2023-05-27T00:35:30,42.805,6.029,CST-1368DR,4286,4697,11632,01.178,552
2023-05-27T00:38:32,42.805,6.029,CST-1368DR,4286,4696,11631,01.178,552
2023-05-27T00:41:33,42.805,6.029,CST-1368DR,4286,4696,11631,01.178,552
2023-05-27T00:44:35,42.805,6.029,CST-1368DR,4286,4695,11629,01.179,552
2023-05-27T00:47:37,42.805,6.029,CST-1368DR,4286,4695,11628,01.180,552
2023-05-27T00:50:38,42.805,6.029,CST-1368DR,4286,4697,11632,01.178,552
2023-05-27T00:53:40,42.805,6.029,CST-1368DR,4286,4696,11631,01.178,552
2023-05-27T00:56:41,42.805,6.029,CST-1368DR,4286,4697,11632,01.178,552
2023-05-27T00:59:43,42.805,6.029,CST-1368DR,4286,4698,11635,01.177,552
2023-05-27T01:02:44,42.805,6.029,CST-1368DR,4286,4697,11632,01.178,552
2023-05-27T01:05:46,42.805,6.029,CST-1368DR,4286,4696,11630,01.179,552
2023-05-27T01:08:48,42.805,6.029,CST-1368DR,4286,4697,11632,01.178,552
2023-05-27T01:11:49,42.805,6.029,CST-1368DR,4286,4699,11637,01.176,552
2023-05-27T01:14:51,42.805,6.029,CST-1368DR,4286,4697,11632,01.178,552
2023-05-27T01:17:52,42.805,6.029,CST-1368DR,4286,4696,11630,01.179,552
2023-05-27T01:20:54,42.805,6.029,CST-1368DR,4286,4698,11635,01.177,552
2023-05-27T01:23:55,42.805,6.029,CST-1368DR,4286,4697,11632,01.178,552
2023-05-27T01:26:57,42.805,6.029,CST-1368DR,4286,4696,11631,01.178,552
2023-05-27T01:29:59,42.805,6.029,CST-1368DR,4286,4697,11633,01.178,552
2023-05-27T01:33:00,42.805,6.029,CST-1368DR,4286,4696,11631,01.178,552
2023-05-27T01:36:02,42.805,6.029,CST-1368DR,4286,4698,11635,01.177,552
2023-05-27T01:39:03,42.805,6.029,CST-1368DR,4286,4698,11636,01.177,552
2023-05-27T01:42:05,42.805,6.029,CST-1368DR,4286,4698,11635,01.177,552
2023-05-27T01:45:06,42.805,6.029,CST-1368DR,4286,4698,11635,01.177,552
2023-05-27T01:48:08,42.805,6.029,CST-1368DR,4286,4699,11637,01.176,552
2023-05-27T01:51:10,42.805,6.029,CST-1368DR,4286,4698,11636,01.177,552
2023-05-27T01:54:11,42.805,6.029,CST-1368DR,4286,4698,11636,01.177,552
2023-05-27T01:57:13,42.805,6.029,CST-1368DR,4286,4695,11629,01.179,552
2023-05-27T02:00:14,42.805,6.029,CST-1368DR,4286,4699,11637,01.176,552
2023-05-27T02:03:16,42.805,6.029,CST-1368DR,4286,4696,11630,01.179,552
2023-05-27T02:06:18,42.805,6.029,CST-1368DR,4286,4695,11629,01.179,552
2023-05-27T02:09:19,42.805,6.029,CST-1368DR,4286,4697,11633,01.178,552
2023-05-27T02:12:21,42.805,6.029,CST-1368DR,4286,4698,11635,01.177,552
2023-05-27T02:15:22,42.805,6.029,CST-1368DR,4286,4697,11632,01.178,552
2023-05-27T02:18:24,42.805,6.029,CST-1368DR,4286,4697,11633,01.178,552
2023-05-27T02:21:25,42.805,6.029,CST-1368DR,4286,4696,11631,01.178,552
2023-05-27T02:24:27,42.805,6.029,CST-1368DR,4286,4698,11635,01.177,552
2023-05-27T02:27:29,42.805,6.029,CST-1368DR,4286,4698,11635,01.177,552
2023-05-27T02:30:30,42.805,6.029,CST-1368DR,4286,4697,11633,01.178,552
2023-05-27T02:33:32,42.805,6.029,CST-1368DR,4286,4697,11633,01.178,552
2023-05-27T02:36:33,42.805,6.029,CST-1368DR,4286,4697,11633,01.178,552
2023-05-27T02:39:35,42.805,6.029,CST-1368DR,4286,4696,11631,01.178,552
2023-05-27T02:42:36,42.805,6.029,CST-1368DR,4286,4699,11638,01.176,552
2023-05-27T02:45:38,42.805,6.029,CST-1368DR,4286,4700,11640,01.175,552
2023-05-27T02:48:40,42.805,6.029,CST-1368DR,4286,4698,11635,01.177,552
2023-05-27T02:51:41,42.805,6.029,CST-1368DR,4286,4699,11638,01.176,552
2023-05-27T02:54:43,42.805,6.029,CST-1368DR,4286,4699,11637,01.176,552
2023-05-27T02:57:44,42.805,6.029,CST-1368DR,4286,4698,11635,01.177,552
2023-05-27T03:00:46,42.805,6.029,CST-1368DR,4286,4699,11639,01.176,552
2023-05-27T03:03:48,42.805,6.029,CST-1368DR,4286,4698,11635,01.177,552
2023-05-27T03:06:49,42.805,6.029,CST-1368DR,4286,4698,11635,01.177,552
2023-05-27T03:09:51,42.805,6.029,CST-1368DR,4286,4698,11636,01.177,552
2023-05-27T03:12:52,42.805,6.029,CST-1368DR,4286,4698,11635,01.177,552
2023-05-27T03:15:54,42.805,6.029,CST-1368DR,4286,4699,11638,01.176,552
2023-05-27T03:18:55,42.805,6.029,CST-1368DR,4286,4698,11636,01.177,552
2023-05-27T03:21:57,42.805,6.029,CST-1368DR,4286,4698,11636,01.177,552
2023-05-27T03:24:59,42.805,6.029,CST-1368DR,4286,4698,11636,01.177,552
2023-05-27T03:28:00,42.805,6.029,CST-1368DR,4286,4699,11637,01.176,552
2023-05-27T03:31:02,42.805,6.029,CST-1368DR,4286,4698,11636,01.177,552
2023-05-27T03:34:03,42.805,6.029,CST-1368DR,4286,4699,11637,01.176,552
2023-05-27T03:37:05,42.805,6.029,CST-1368DR,4286,4699,11637,01.176,552
2023-05-27T03:40:06,42.805,6.029,CST-1368DR,4286,4699,11638,01.176,552
2023-05-27T03:43:08,42.805,6.029,CST-1368DR,4286,4699,11637,01.176,552
2023-05-27T03:46:10,42.805,6.029,CST-1368DR,4286,4699,11638,01.176,552
2023-05-27T03:49:11,42.805,6.029,CST-1368DR,4286,4700,11639,01.176,552
2023-05-27T03:52:13,42.805,6.029,CST-1368DR,4286,4698,11636,01.177,552
2023-05-27T03:55:14,42.805,6.029,CST-1368DR,4286,4698,11636,01.177,552
2023-05-27T03:58:16,42.805,6.029,CST-1368DR,4286,4699,11638,01.176,552
2023-05-27T04:01:18,42.805,6.029,CST-1368DR,4286,4699,11637,01.176,552
2023-05-27T04:04:19,42.805,6.029,CST-1368DR,4286,4698,11636,01.177,552
2023-05-27T04:07:21,42.805,6.029,CST-1368DR,4286,4699,11638,01.176,552
2023-05-27T04:10:22,42.805,6.029,CST-1368DR,4286,4699,11639,01.176,552
2023-05-27T04:13:24,42.805,6.029,CST-1368DR,4286,4699,11638,01.176,552
2023-05-27T04:16:25,42.805,6.029,CST-1368DR,4286,4699,11638,01.176,552
2023-05-27T04:19:27,42.805,6.029,CST-1368DR,4286,4700,11641,01.175,552
2023-05-27T04:22:29,42.805,6.029,CST-1368DR,4286,4700,11639,01.176,552
2023-05-27T04:25:30,42.805,6.029,CST-1368DR,4286,4699,11638,01.176,552
2023-05-27T04:28:32,42.805,6.029,CST-1368DR,4286,4699,11638,01.176,552
2023-05-27T04:31:34,42.805,6.029,CST-1368DR,4286,4701,11643,01.174,552
2023-05-27T04:34:35,42.805,6.029,CST-1368DR,4286,4699,11638,01.176,552
2023-05-27T04:37:37,42.805,6.029,CST-1368DR,4286,4699,11637,01.176,552
2023-05-27T04:40:38,42.805,6.029,CST-1368DR,4286,4698,11636,01.177,552
2023-05-27T04:43:40,42.805,6.029,CST-1368DR,4286,4699,11637,01.176,552
2023-05-27T04:46:42,42.805,6.029,CST-1368DR,4286,4699,11638,01.176,552
2023-05-27T04:49:43,42.805,6.029,CST-1368DR,4286,4698,11636,01.177,552
2023-05-27T04:52:45,42.805,6.029,CST-1368DR,4286,4700,11640,01.175,552
2023-05-27T04:55:46,42.805,6.029,CST-1368DR,4286,4699,11638,01.176,552
2023-05-27T04:58:48,42.805,6.029,CST-1368DR,4286,4699,11638,01.176,552
2023-05-27T05:01:50,42.805,6.029,CST-1368DR,4286,4698,11636,01.177,552
2023-05-27T05:04:51,42.805,6.029,CST-1368DR,4286,4700,11639,01.176,552
2023-05-27T05:07:53,42.805,6.029,CST-1368DR,4286,4700,11639,01.176,552
2023-05-27T05:10:54,42.805,6.029,CST-1368DR,4286,4699,11638,01.176,552
2023-05-27T05:13:56,42.805,6.029,CST-1368DR,4286,4700,11639,01.176,552
2023-05-27T05:16:57,42.805,6.029,CST-1368DR,4286,4698,11636,01.177,552
2023-05-27T05:19:59,42.805,6.029,CST-1368DR,4286,4698,11636,01.177,552
2023-05-27T05:23:01,42.805,6.029,CST-1368DR,4286,4699,11639,01.176,552
2023-05-27T05:26:02,42.805,6.029,CST-1368DR,4286,4699,11638,01.176,552
2023-05-27T05:29:04,42.805,6.029,CST-1368DR,4286,4698,11635,01.177,552
2023-05-27T05:32:05,42.805,6.029,CST-1368DR,4286,4698,11636,01.177,552
2023-05-27T05:35:07,42.805,6.029,CST-1368DR,4286,4698,11635,01.177,552
2023-05-27T05:38:08,42.805,6.029,CST-1368DR,4286,4699,11637,01.176,552
2023-05-27T05:41:10,42.805,6.029,CST-1368DR,4286,4698,11635,01.177,552
2023-05-27T05:44:12,42.805,6.029,CST-1368DR,4286,4699,11638,01.176,552
2023-05-27T05:47:13,42.805,6.029,CST-1368DR,4286,4698,11636,01.177,552
2023-05-27T05:50:15,42.805,6.029,CST-1368DR,4286,4699,11639,01.176,552
2023-05-27T05:53:16,42.805,6.029,CST-1368DR,4286,4698,11635,01.177,552
2023-05-27T05:56:18,42.805,6.029,CST-1368DR,4286,4699,11638,01.176,552
2023-05-27T05:59:19,42.805,6.029,CST-1368DR,4286,4699,11639,01.176,552
2023-05-27T06:02:21,42.805,6.029,CST-1368DR,4286,4700,11639,01.176,552
2023-05-27T06:05:23,42.805,6.029,CST-1368DR,4286,4700,11640,01.175,552
2023-05-27T06:08:24,42.805,6.029,CST-1368DR,4286,4699,11639,01.176,552
2023-05-27T06:11:26,42.805,6.029,CST-1368DR,4286,4698,11636,01.177,552
2023-05-27T06:14:27,42.805,6.029,CST-1368DR,4286,4699,11637,01.176,552
2023-05-27T06:17:29,42.805,6.029,CST-1368DR,4286,4698,11635,01.177,552
2023-05-27T06:20:31,42.805,6.029,CST-1368DR,4286,4699,11638,01.176,552
2023-05-27T06:23:32,42.805,6.029,CST-1368DR,4286,4699,11637,01.176,552
2023-05-27T06:26:34,42.805,6.029,CST-1368DR,4286,4698,11635,01.177,552
2023-05-27T06:29:35,42.805,6.029,CST-1368DR,4286,4700,11639,01.176,552
2023-05-27T06:32:38,42.805,6.029,CST-1368DR,4286,4698,11635,01.177,552
2023-05-27T06:35:39,42.805,6.029,CST-1368DR,4286,4698,11635,01.177,552
2023-05-27T06:38:41,42.805,6.029,CST-1368DR,4286,4698,11636,01.177,552
2023-05-27T06:41:42,42.805,6.029,CST-1368DR,4286,4698,11635,01.177,552
2023-05-27T06:44:44,42.805,6.029,CST-1368DR,4286,4698,11635,01.177,552
2023-05-27T06:47:46,42.805,6.029,CST-1368DR,4286,4697,11632,01.178,552
2023-05-27T06:50:47,42.805,6.029,CST-1368DR,4286,4697,11633,01.178,552
2023-05-27T06:53:49,42.805,6.029,CST-1368DR,4286,4696,11631,01.178,552
2023-05-27T06:56:50,42.805,6.029,CST-1368DR,4286,4696,11631,01.178,552
2023-05-27T06:59:52,42.805,6.029,CST-1368DR,4286,4697,11632,01.178,552
2023-05-27T07:02:53,42.805,6.029,CST-1368DR,4286,4697,11633,01.178,552
2023-05-27T07:05:55,42.805,6.029,CST-1368DR,4286,4697,11633,01.178,552
2023-05-27T07:08:57,42.805,6.029,CST-1368DR,4286,4697,11633,01.178,552
2023-05-27T07:11:58,42.805,6.029,CST-1368DR,4286,4697,11632,01.178,552
2023-05-27T07:15:00,42.805,6.029,CST-1368DR,4286,4697,11633,01.178,552
2023-05-27T07:18:01,42.805,6.029,CST-1368DR,4286,4697,11633,01.178,552
2023-05-27T07:21:03,42.805,6.029,CST-1368DR,4286,4696,11631,01.178,552
2023-05-27T07:24:04,42.805,6.029,CST-1368DR,4286,4698,11635,01.177,552
2023-05-27T07:27:06,42.805,6.029,CST-1368DR,4286,4698,11635,01.177,552
2023-05-27T07:30:08,42.805,6.029,CST-1368DR,4286,4697,11632,01.178,552
2023-05-27T07:33:09,42.805,6.029,CST-1368DR,4286,4697,11633,01.178,552
2023-05-27T07:36:11,42.805,6.029,CST-1368DR,4286,4696,11631,01.178,552
2023-05-27T07:39:12,42.805,6.029,CST-1368DR,4286,4696,11630,01.179,552
2023-05-27T07:42:14,42.805,6.029,CST-1368DR,4286,4697,11633,01.178,552
2023-05-27T07:45:16,42.805,6.029,CST-1368DR,4286,4697,11633,01.178,552
2023-05-27T07:48:17,42.805,6.029,CST-1368DR,4286,4697,11633,01.178,552
2023-05-27T07:51:19,42.805,6.029,CST-1368DR,4286,4696,11631,01.178,552
2023-05-27T07:54:20,42.805,6.029,CST-1368DR,4286,4697,11633,01.178,552
2023-05-27T07:57:22,42.805,6.029,CST-1368DR,4286,4698,11635,01.177,552
2023-05-27T08:00:23,42.805,6.029,CST-1368DR,4286,4695,11629,01.179,552
2023-05-27T08:03:25,42.805,6.029,CST-1368DR,4286,4695,11629,01.179,552
2023-05-27T08:06:27,42.805,6.029,CST-1368DR,4286,4697,11632,01.178,552
2023-05-27T08:09:28,42.805,6.029,CST-1368DR,4286,4696,11630,01.179,552
2023-05-27T08:12:30,42.805,6.029,CST-1368DR,4286,4698,11635,01.177,552
2023-05-27T08:15:31,42.805,6.029,CST-1368DR,4286,4697,11632,01.178,552
2023-05-27T08:18:33,42.805,6.029,CST-1368DR,4286,4697,11632,01.178,552
2023-05-27T08:21:34,42.805,6.029,CST-1368DR,4286,4696,11631,01.178,552
2023-05-27T08:24:36,42.805,6.029,CST-1368DR,4286,4697,11632,01.178,552
2023-05-27T08:27:38,42.805,6.029,CST-1368DR,4286,4697,11633,01.178,552
2023-05-27T08:30:40,42.805,6.029,CST-1368DR,4286,4696,11631,01.178,552
2023-05-27T08:33:42,42.805,6.029,CST-1368DR,4286,4696,11631,01.178,552
2023-05-27T08:36:43,42.805,6.029,CST-1368DR,4286,4697,11633,01.178,552
2023-05-27T08:39:45,42.805,6.029,CST-1368DR,4286,4696,11630,01.179,552
2023-05-27T08:42:47,42.805,6.029,CST-1368DR,4286,4696,11630,01.179,552
2023-05-27T08:45:48,42.805,6.029,CST-1368DR,4286,4697,11633,01.178,552
2023-05-27T08:48:50,42.805,6.029,CST-1368DR,4286,4696,11630,01.179,552
2023-05-27T08:51:51,42.805,6.029,CST-1368DR,4286,4696,11631,01.178,552
2023-05-27T08:54:53,42.805,6.029,CST-1368DR,4286,4698,11636,01.177,552
2023-05-27T08:57:54,42.805,6.029,CST-1368DR,4286,4695,11629,01.179,552
2023-05-27T09:00:56,42.805,6.029,CST-1368DR,4286,4694,11625,01.181,552
2023-05-27T09:03:58,42.805,6.029,CST-1368DR,4286,4695,11628,01.180,552
2023-05-27T09:06:59,42.805,6.029,CST-1368DR,4286,4696,11631,01.178,552
2023-05-27T09:10:01,42.805,6.029,CST-1368DR,4286,4694,11626,01.180,552
2023-05-27T09:13:02,42.805,6.029,CST-1368DR,4286,4695,11628,01.180,552
2023-05-27T09:16:04,42.805,6.029,CST-1368DR,4286,4696,11630,01.179,552
2023-05-27T09:19:05,42.805,6.029,CST-1368DR,4286,4689,11613,01.185,552
2023-05-27T09:22:07,42.805,6.029,CST-1368DR,4286,4688,11612,01.185,552
2023-05-27T09:25:09,42.805,6.029,CST-1368DR,4286,4693,11622,01.182,552
2023-05-27T09:28:10,42.805,6.029,CST-1368DR,4291,4697,11620,01.182,552
2023-05-27T09:31:12,42.805,6.029,CST-1368DR,4292,4702,11629,01.179,552
2023-05-27T09:34:13,42.805,6.029,CST-1368DR,4293,4702,11627,01.180,552
2023-05-27T09:37:15,42.805,6.029,CST-1368DR,4294,4698,11614,01.184,552
2023-05-27T09:40:17,42.805,6.029,CST-1368DR,4294,4697,11613,01.185,552
2023-05-27T09:43:18,42.805,6.029,CST-1368DR,4294,4696,11609,01.186,552
2023-05-27T09:46:20,42.805,6.029,CST-1368DR,4295,4699,11615,01.184,552
2023-05-27T09:49:21,42.805,6.029,CST-1368DR,4295,4692,11597,01.190,552
2023-05-27T09:52:23,42.805,6.029,CST-1368DR,4295,4697,11610,01.186,552
2023-05-27T09:55:24,42.805,6.029,CST-1368DR,4295,4701,11620,01.182,552
2023-05-27T09:58:26,42.805,6.029,CST-1368DR,4296,4694,11599,01.190,552
2023-05-27T10:01:28,42.805,6.029,CST-1368DR,4296,4686,11580,01.196,552
2023-05-27T10:04:29,42.805,6.029,CST-1368DR,4296,4690,11589,01.193,552
2023-05-27T10:07:31,42.805,6.029,CST-1368DR,4296,4692,11596,01.191,552
2023-05-27T10:10:32,42.805,6.029,CST-1368DR,4296,4695,11601,01.189,552
2023-05-27T10:13:34,42.805,6.029,CST-1368DR,4297,4694,11596,01.191,552
2023-05-27T10:16:35,42.805,6.029,CST-1368DR,4297,4696,11601,01.189,552
2023-05-27T10:19:37,42.805,6.029,CST-1368DR,4297,4692,11592,01.192,552
2023-05-27T10:22:39,42.805,6.029,CST-1368DR,4297,4688,11582,01.195,552
2023-05-27T10:25:40,42.805,6.029,CST-1368DR,4297,4687,11579,01.196,552
2023-05-27T10:28:42,42.805,6.029,CST-1368DR,4297,4688,11581,01.196,552
2023-05-27T10:31:43,42.805,6.029,CST-1368DR,4297,4698,11606,01.187,552
2023-05-27T10:34:45,42.805,6.029,CST-1368DR,4297,4688,11581,01.196,552
2023-05-27T10:37:47,42.805,6.029,CST-1368DR,4297,4687,11579,01.196,552
2023-05-27T10:40:48,42.805,6.029,CST-1368DR,4297,4688,11581,01.196,552
2023-05-27T10:43:50,42.805,6.029,CST-1368DR,4297,4686,11578,01.197,552
2023-05-27T10:46:51,42.805,6.029,CST-1368DR,4297,4689,11586,01.194,552
2023-05-27T10:49:53,42.805,6.029,CST-1368DR,4297,4688,11583,01.195,552
2023-05-27T10:52:54,42.805,6.029,CST-1368DR,4298,4685,11573,01.198,552
2023-05-27T10:55:56,42.805,6.029,CST-1368DR,4298,4687,11577,01.197,552
2023-05-27T10:58:58,42.805,6.029,CST-1368DR,4297,4683,11571,01.199,552
2023-05-27T11:01:59,42.805,6.029,CST-1368DR,4298,4683,11566,01.201,552
2023-05-27T11:05:01,42.805,6.029,CST-1368DR,4298,4689,11582,01.195,552
2023-05-27T11:08:02,42.805,6.029,CST-1368DR,4298,4690,11585,01.194,552
2023-05-27T11:11:04,42.805,6.029,CST-1368DR,4298,4687,11577,01.197,552
2023-05-27T11:14:05,42.805,6.029,CST-1368DR,4298,4687,11577,01.197,552
2023-05-27T11:17:07,42.805,6.029,CST-1368DR,4298,4690,11584,01.195,552
2023-05-27T11:20:09,42.805,6.029,CST-1368DR,4298,4683,11568,01.200,552
2023-05-27T11:23:10,42.805,6.029,CST-1368DR,4298,4680,11561,01.203,552
2023-05-27T11:26:12,42.805,6.029,CST-1368DR,4298,4686,11574,01.198,552
2023-05-27T11:29:13,42.805,6.029,CST-1368DR,4298,4683,11568,01.200,552
2023-05-27T11:32:15,42.805,6.029,CST-1368DR,4298,4693,11592,01.192,552
2023-05-27T11:35:16,42.805,6.029,CST-1368DR,4298,4684,11569,01.200,552
2023-05-27T11:38:18,42.805,6.029,CST-1368DR,4298,4683,11568,01.200,552
2023-05-27T11:41:20,42.805,6.029,CST-1368DR,4298,4681,11562,01.202,552
2023-05-27T11:44:21,42.805,6.029,CST-1368DR,4298,4677,11553,01.205,552
2023-05-27T11:47:23,42.805,6.029,CST-1368DR,4298,4681,11563,01.202,552
2023-05-27T11:50:24,42.805,6.029,CST-1368DR,4298,4680,11560,01.203,552
2023-05-27T11:53:26,42.805,6.029,CST-1368DR,4298,4683,11568,01.200,552
2023-05-27T11:56:28,42.805,6.029,CST-1368DR,4298,4678,11556,01.204,552
2023-05-27T11:59:29,42.805,6.029,CST-1368DR,4298,4678,11555,01.205,552
2023-05-27T12:02:31,42.805,6.029,CST-1368DR,4298,4685,11573,01.198,552
2023-05-27T12:05:32,42.805,6.029,CST-1368DR,4298,4683,11567,01.201,552
2023-05-27T12:08:34,42.805,6.029,CST-1368DR,4298,4682,11564,01.202,552
2023-05-27T12:11:35,42.805,6.029,CST-1368DR,4298,4676,11551,01.206,552
2023-05-27T12:14:37,42.805,6.029,CST-1368DR,4298,4677,11552,01.206,552
2023-05-27T12:17:39,42.805,6.029,CST-1368DR,4298,4674,11545,01.208,552
2023-05-27T12:20:40,42.805,6.029,CST-1368DR,4298,4678,11555,01.205,552
2023-05-27T12:23:42,42.805,6.029,CST-1368DR,4298,4676,11550,01.206,552
2023-05-27T12:26:43,42.805,6.029,CST-1368DR,4298,4672,11540,01.210,552
2023-05-27T12:29:45,42.805,6.029,CST-1368DR,4299,4673,11539,01.210,552
2023-05-27T12:32:46,42.805,6.029,CST-1368DR,4298,4672,11541,01.210,552
2023-05-27T12:35:48,42.805,6.029,CST-1368DR,4298,4672,11540,01.210,552
2023-05-27T12:38:50,42.805,6.029,CST-1368DR,4299,4669,11531,01.213,552
2023-05-27T12:41:51,42.805,6.029,CST-1368DR,4298,4672,11541,01.210,552
2023-05-27T12:44:53,42.805,6.029,CST-1368DR,4299,4673,11539,01.210,552
2023-05-27T12:47:54,42.805,6.029,CST-1368DR,4299,4671,11535,01.212,552
2023-05-27T12:50:56,42.805,6.029,CST-1368DR,4299,4673,11541,01.210,552
2023-05-27T12:53:57,42.805,6.029,CST-1368DR,4299,4671,11534,01.212,552
2023-05-27T12:56:59,42.805,6.029,CST-1368DR,4299,4669,11530,01.213,552
2023-05-27T13:00:01,42.805,6.029,CST-1368DR,4299,4668,11527,01.214,552
2023-05-27T13:03:02,42.805,6.029,CST-1368DR,4299,4667,11524,01.215,552
2023-05-27T13:06:04,42.805,6.029,CST-1368DR,4299,4674,11542,01.209,552
2023-05-27T13:09:05,42.805,6.029,CST-1368DR,4299,4672,11538,01.211,552
2023-05-27T13:12:07,42.805,6.029,CST-1368DR,4299,4674,11542,01.209,552
2023-05-27T13:15:09,42.805,6.029,CST-1368DR,4299,4670,11532,01.213,552
2023-05-27T13:18:10,42.805,6.029,CST-1368DR,4299,4680,11558,01.204,552
2023-05-27T13:21:12,42.805,6.029,CST-1368DR,4299,4677,11550,01.206,552
2023-05-27T13:24:13,42.805,6.029,CST-1368DR,4299,4673,11539,01.210,552
2023-05-27T13:27:15,42.805,6.029,CST-1368DR,4299,4678,11551,01.206,552
2023-05-27T13:30:16,42.805,6.029,CST-1368DR,4299,4668,11527,01.214,552
2023-05-27T13:33:18,42.805,6.029,CST-1368DR,4299,4674,11543,01.209,552
2023-05-27T13:36:20,42.805,6.029,CST-1368DR,4299,4675,11545,01.208,552
2023-05-27T13:39:21,42.805,6.029,CST-1368DR,4299,4676,11548,01.207,552
2023-05-27T13:42:23,42.805,6.029,CST-1368DR,4299,4672,11538,01.211,552
2023-05-27T13:45:24,42.805,6.029,CST-1368DR,4299,4672,11537,01.211,552
2023-05-27T13:48:26,42.805,6.029,CST-1368DR,4299,4670,11533,01.212,552
2023-05-27T13:51:27,42.805,6.029,CST-1368DR,4300,4675,11541,01.210,552
2023-05-27T13:54:29,42.805,6.029,CST-1368DR,4300,4676,11546,01.208,552
2023-05-27T13:57:31,42.805,6.029,CST-1368DR,4300,4679,11553,01.205,552
2023-05-27T14:00:32,42.805,6.029,CST-1368DR,4300,4678,11549,01.207,552
2023-05-27T14:03:34,42.805,6.029,CST-1368DR,4300,4679,11551,01.206,552
2023-05-27T14:06:35,42.805,6.029,CST-1368DR,4300,4678,11549,01.207,552
2023-05-27T14:09:37,42.805,6.029,CST-1368DR,4300,4679,11552,01.206,552
2023-05-27T14:12:39,42.805,6.029,CST-1368DR,4300,4670,11530,01.213,552
2023-05-27T14:15:40,42.805,6.029,CST-1368DR,4300,4675,11542,01.209,552
2023-05-27T14:18:42,42.805,6.029,CST-1368DR,4300,4676,11546,01.208,552
2023-05-27T14:21:43,42.805,6.029,CST-1368DR,4300,4676,11545,01.208,552
2023-05-27T14:24:45,42.805,6.029,CST-1368DR,4300,4674,11541,01.210,552
2023-05-27T14:27:46,42.805,6.029,CST-1368DR,4300,4678,11549,01.207,552
2023-05-27T14:30:49,42.805,6.029,CST-1368DR,4300,4675,11542,01.209,552
2023-05-27T14:33:51,42.805,6.029,CST-1368DR,4300,4669,11528,01.214,552
2023-05-27T14:36:53,42.805,6.029,CST-1368DR,4300,4679,11551,01.206,552
2023-05-27T14:39:54,42.805,6.029,CST-1368DR,4300,4672,11534,01.212,552
2023-05-27T14:42:56,42.805,6.029,CST-1368DR,4300,4680,11555,01.205,552
2023-05-27T14:45:57,42.805,6.029,CST-1368DR,4300,4676,11545,01.208,552
2023-05-27T14:48:59,42.805,6.029,CST-1368DR,4300,4676,11546,01.208,552
2023-05-27T14:52:01,42.805,6.029,CST-1368DR,4300,4674,11541,01.210,552
2023-05-27T14:55:02,42.805,6.029,CST-1368DR,4300,4675,11542,01.209,552
2023-05-27T14:58:04,42.805,6.029,CST-1368DR,4300,4675,11543,01.209,552
2023-05-27T15:01:05,42.805,6.029,CST-1368DR,4300,4675,11543,01.209,552
2023-05-27T15:04:07,42.805,6.029,CST-1368DR,4300,4673,11538,01.211,552
2023-05-27T15:07:08,42.805,6.029,CST-1368DR,4300,4674,11540,01.210,552
2023-05-27T15:10:10,42.805,6.029,CST-1368DR,4300,4674,11539,01.210,552
2023-05-27T15:13:12,42.805,6.029,CST-1368DR,4300,4674,11541,01.210,552
2023-05-27T15:16:13,42.805,6.029,CST-1368DR,4300,4678,11549,01.207,552
2023-05-27T15:19:15,42.805,6.029,CST-1368DR,4300,4675,11543,01.209,552
2023-05-27T15:22:16,42.805,6.029,CST-1368DR,4300,4676,11546,01.208,552
2023-05-27T15:25:18,42.805,6.029,CST-1368DR,4300,4672,11534,01.212,552
2023-05-27T15:28:19,42.805,6.029,CST-1368DR,4300,4673,11536,01.211,552
2023-05-27T15:31:21,42.805,6.029,CST-1368DR,4300,4674,11539,01.210,552
2023-05-27T15:34:23,42.805,6.029,CST-1368DR,4300,4670,11530,01.213,552
2023-05-27T15:37:24,42.805,6.029,CST-1368DR,4300,4669,11528,01.214,552
2023-05-27T15:40:26,42.805,6.029,CST-1368DR,4300,4668,11525,01.215,552
2023-05-27T15:43:27,42.805,6.029,CST-1368DR,4300,4671,11532,01.213,552
2023-05-27T15:46:29,42.805,6.029,CST-1368DR,4300,4672,11535,01.212,552
2023-05-27T15:49:31,42.805,6.029,CST-1368DR,4300,4673,11537,01.211,552
2023-05-27T15:52:32,42.805,6.029,CST-1368DR,4300,4671,11533,01.212,552
2023-05-27T15:55:34,42.805,6.029,CST-1368DR,4300,4676,11545,01.208,552
2023-05-27T15:58:35,42.805,6.029,CST-1368DR,4300,4675,11543,01.209,552
2023-05-27T16:01:37,42.805,6.029,CST-1368DR,4300,4676,11545,01.208,552
2023-05-27T16:04:38,42.805,6.029,CST-1368DR,4300,4674,11541,01.210,552
2023-05-27T16:07:40,42.805,6.029,CST-1368DR,4300,4674,11541,01.210,552
2023-05-27T16:10:42,42.805,6.029,CST-1368DR,4300,4676,11546,01.208,552
2023-05-27T16:13:43,42.805,6.029,CST-1368DR,4300,4675,11541,01.210,552
2023-05-27T16:16:45,42.805,6.029,CST-1368DR,4300,4676,11546,01.208,552
2023-05-27T16:19:46,42.805,6.029,CST-1368DR,4300,4670,11530,01.213,552
2023-05-27T16:22:48,42.805,6.029,CST-1368DR,4300,4675,11543,01.209,552
2023-05-27T16:25:49,42.805,6.029,CST-1368DR,4300,4675,11542,01.209,552
2023-05-27T16:28:51,42.805,6.029,CST-1368DR,4300,4673,11538,01.211,552
2023-05-27T16:31:53,42.805,6.029,CST-1368DR,4300,4675,11542,01.209,552
2023-05-27T16:34:54,42.805,6.029,CST-1368DR,4300,4676,11544,01.209,552
2023-05-27T16:37:56,42.805,6.029,CST-1368DR,4300,4673,11538,01.211,552